Weather in Gruzino

Russia / Novgorod Oblast     59°08′54″N   31°52′55″E
temp.,
°C
wind,
m/s
gust,
m/s
humid.,
%
clouds,
%
prec.,
mm/h
press.,
hPa
HPBL,
m
4 march, thu
thu400:00+2w51296100 1.8 1000962
03:000nw4108899 2.2 1001895
06:00−4nw310870 0.1 1001498
09:00−4nw388810 0.1 1002541
12:00−2nnw357898 0.0 1002653
15:00−2nw357599 0.1 1003836
18:00−4nnw3687100 0.1 1003585
21:00−5nnw2494100 0.4 1004301
5 march, fri
fri500:00−6wnw279483 0.1 1005357
03:00−7wnw279569 0.1 1006265
06:00−7wnw269661 0.0 1006275
09:00−7nw369073 0.1 1008395
12:00−5nw2478100 0.1 1010709
15:00−4nw3573100 0.1 1012829
18:00−6nnw3678100 0.1 1013587
21:00−7nnw278887 0.1 1015325
6 march, sat
sat600:00−8nw259631 0.0 1017153
03:00−9wnw249533 0.0 1017116
06:00−9w259685 0.0 1017148
09:00−9w259168 0.1 1017226
12:00−5sw35691 0.0 1015634
15:00−3sw5106223 0.0 10121231
18:00−4ssw71476100 0.1 10061192
21:00−2sw81793100 2.2 10011449
7 march, sun
sun700:00−2sw71592100 1.6 9951195
03:00−1wsw61296100 2.9 993997
06:00−5wnw4976100 1.4 992839
09:00−7w41167100 1.6 9931455
12:00−6wsw597961 0.2 9921058
15:00−4wsw478181 0.6 990812
18:00−6nw3686100 1.0 989418
21:00−8n51189100 1.4 9921034
8 march, mon
mon800:00−10nnw5128399 0.1 996666
03:00−10nw4109069 0.1 999757
06:00−11nnw51084100 0.1 1001848
09:00−12nnw5984100 0.1 1005740
12:00−11nnw5878100 0.1 1008823
15:00−11nnw5878100 0.1 1010787
18:00−12nnw4984100 0.1 1013779
21:00−12n4988100 0.1 1016746